Sivas, Turkey

7:08 AM +03 on May 30, 2017 (GMT +0300)
Sivas

Weather History for LTAR - August, 2013

Change the Weather History Date:

Sunday, August 25, 2013

  Actual Average Record
Temperature  
Mean Temperature 65 °F -  
Max Temperature 82 °F 77 °F - ()
Min Temperature 48 °F 47 °F - ()
Growing Degree Days 15 (Base 50)    
Moisture  
Dew Point 41 °F    
Average Humidity 50    
Maximum Humidity 77    
Minimum Humidity 10    
Precipitation  
Precipitation 0.00 in 0.02 in - ()
Sea Level Pressure  
Sea Level Pressure 30.07 in    
Wind  
Wind Speed 8 mph ()    
Max Wind Speed 18 mph    
Max Gust Speed -    
Visibility 7.6 miles    
Events      
T = Trace of Precipitation, MM = Missing Value Source: Averaged Metar Reports

Daily Weather History Graph

Daily Weather History Graph

Search for Another Location

Airport or City:

Trip Planner

Search our weather history database for the weather conditions in past years. The results will help you decide how hot, cold, wet, or windy it might be!

Date:

Astronomy

Aug. 25, 2013 Rise Set
Actual Time 5:53 AM EEST 7:14 PM EEST
Civil Twilight 5:25 AM EEST 7:42 PM EEST
Nautical Twilight 4:51 AM EEST 8:16 PM EEST
Astronomical Twilight 4:16 AM EEST 8:51 PM EEST
Moon 9:33 PM EEST (8/25) 10:33 AM EEST (8/25)
Length of Visible Light 14h 17m
Length of Day
13h 20m
Waning Gibbous, 78% of the Moon is Illuminated
Aug 25
Waning Gibbous
Aug 28
Last Quarter
Sep 5
New
Sep 12
First Quarter
Sep 19
Full

Hourly Weather History & Observations

Time (EEST) Temp. Dew Point Humidity Pressure Visibility Wind Dir Wind Speed Gust Speed Precip Events Conditions
12:50 AM 53.6 °F 46.4 °F 77% 30.04 in - NNW 9.2 mph - N/A   Clear
1:50 AM 51.8 °F 42.8 °F 71% 30.04 in - NNW 4.6 mph - N/A   Clear
2:50 AM 51.8 °F 41.0 °F 67% 30.06 in - NW 6.9 mph - N/A   Clear
3:50 AM 51.8 °F 39.2 °F 62% 30.06 in - NNW 11.5 mph - N/A   Clear
4:50 AM 48.2 °F 41.0 °F 76% 30.06 in - NNW 5.8 mph - N/A   Clear
5:50 AM 48.2 °F 41.0 °F 76% 30.06 in - NNW 8.1 mph - N/A   Clear
6:50 AM 51.8 °F 42.8 °F 71% 30.06 in - NNW 6.9 mph - N/A   Clear
7:50 AM 55.4 °F 41.0 °F 58% 30.09 in - North 6.9 mph - N/A   Clear
8:50 AM 59.0 °F 41.0 °F 51% 30.09 in - NNW 8.1 mph - N/A   Clear
9:50 AM 62.6 °F 37.4 °F 39% 30.09 in - NNW 9.2 mph - N/A   Clear
10:50 AM 66.2 °F 35.6 °F 32% 30.09 in - North 6.9 mph - N/A   Clear
11:50 AM 68.0 °F 35.6 °F 30% 30.09 in - NNW 8.1 mph - N/A   Clear
12:50 PM 71.6 °F 35.6 °F 27% 30.06 in - Variable 8.1 mph - N/A   Clear
1:50 PM 71.6 °F 35.6 °F 27% 30.06 in - NW 11.5 mph - N/A   Clear
2:50 PM 73.4 °F 33.8 °F 23% 30.06 in - NNW 10.4 mph - N/A   Clear
3:00 PM 81 °F 35 °F 10%  in 9 mi North 4.6 mph - -  
3:50 PM 73.4 °F 37.4 °F 27% 30.06 in - Variable 9.2 mph - N/A   Clear
4:50 PM 71.6 °F 41.0 °F 33% 30.06 in 6.2 mi NNW 15.0 mph - N/A   Partly Cloudy
5:50 PM 69.8 °F 39.2 °F 33% 30.06 in 6.2 mi NNW 18.4 mph - N/A   Partly Cloudy
6:50 PM 66.2 °F 42.8 °F 43% 30.06 in - North 16.1 mph - N/A   Clear
7:50 PM 62.6 °F 44.6 °F 52% 30.09 in - North 11.5 mph - N/A   Clear
8:50 PM 60.8 °F 48.2 °F 63% 30.09 in - North 11.5 mph - N/A   Clear
9:00 PM 66 °F 48 °F 42%  in 9 mi NNE 2.3 mph - -  
9:50 PM 59.0 °F 46.4 °F 63% 30.12 in - North 11.5 mph - N/A   Clear
10:50 PM 55.4 °F 44.6 °F 67% 30.12 in - North 8.1 mph - N/A   Clear
11:50 PM 53.6 °F 42.8 °F 67% 30.12 in - North 6.9 mph - N/A   Clear